Flag for Australia Weather past 2 weeks in Launceston, Tasmania, Australia

Now
41 °F

Mostly cloudy.


Feels Like: 38 °F
Forecast: 34 / 53 °F
Wind: 5 mph from Southwest

Location: Launceston Airport

Current Time: Jun 30, 2015 at 1:30:31 PM

Latest Report: Jun 30, 2015 at 1:00 PM


Visibility: 3 mi

Pressure: 30.24 "Hg

Humidity: 93%

Dew point: 39 °F

Location of LauncestonLocation

Historic Weather in Launceston — Graph

°F

Launceston temperature yesterday

Maximum temperature yesterday: 55 °F (at 12:30 PM)
Minimum temperature yesterday: 37 °F (at 11:30 PM)
Average temperature yesterday: 47 °F

Past Weeks' High & Low Weather Summary

 TemperatureHumidityPressure
High59 °F (Jun 26, 1:30 PM)100% (Jun 16, 3:30 AM)30.42 "Hg (Jun 16, 3:30 AM)
Low25 °F (Jun 21, 6:00 AM)50% (Jun 20, 3:00 PM)29.89 "Hg (Jun 16, 9:30 PM)
Average45 °F85%30.19 "Hg
* Reported Jun 15 12:00 Noon — Jun 30 12:00 Noon, Launceston, Weather by CustomWeather, © 2015

Note: Actual official high and low records may vary slightly from our data, if they occured in-between our weather recording intervals... More about our weather records

Advertising

Launceston weather history for previous 24 hours

 ConditionsComfort  
Time TempWeatherWind HumidityBarometerVisibility
12:00 PM
Tue, Jun 30
39 °FLow clouds.3 mph93%30.27 "Hg1 mi
11:03 AM39 °FLow clouds.5 mph100%30.30 "Hg4 mi
10:30 AM37 °FLow clouds.1 mph100%30.30 "Hg4 mi
10:00 AM37 °FLow clouds.6 mph93%30.30 "Hg1 mi
9:30 AM37 °FLow clouds.6 mph93%30.30 "Hg0 mi
9:00 AM37 °FLow clouds.5 mph93%30.30 "Hg0 mi
8:30 AM37 °FSnow flurries. Low clouds.3 mph93%30.30 "Hg0 mi
8:00 AM36 °FLow clouds.5 mph100%30.27 "Hg0 mi
7:30 AM36 °FLow clouds.5 mph93%30.27 "Hg0 mi
7:04 AM36 °FLow clouds.2 mph93%30.27 "Hg0 mi
7:00 AM36 °FLow clouds.No wind93%30.27 "Hg0 mi
6:00 AM37 °FLow clouds.5 mph93%30.27 "Hg1 mi
5:30 AM37 °FDrizzle. Low clouds.5 mph93%30.27 "Hg0 mi
5:00 AM37 °FDrizzle. Low clouds.6 mph100%30.27 "Hg0 mi
4:00 AM39 °FLow clouds.3 mph100%30.27 "Hg2 mi
3:30 AM39 °FLow clouds.5 mph100%30.27 "Hg0 mi
3:00 AM39 °FLow clouds.3 mph100%30.27 "Hg0 mi
2:30 AM39 °FLow clouds.3 mph93%30.27 "Hg0 mi
2:02 AM37 °FLow clouds.No wind100%30.27 "HgN/A
1:30 AM37 °FPassing clouds.5 mph100%30.27 "Hg0 mi
1:00 AM37 °FPassing clouds.3 mph93%30.27 "Hg1 mi
12:00 AM37 °FPassing clouds.5 mph100%30.30 "HgN/A
11:30 PM
Mon, Jun 29
37 °FPassing clouds.8 mph100%30.30 "Hg2 mi
11:00 PM39 °FChilly.8 mph93%30.30 "Hg0 mi
10:30 PM41 °FPassing clouds.5 mph100%30.30 "Hg0 mi
10:00 PM39 °FPassing clouds.7 mph100%30.30 "Hg0 mi
9:30 PM41 °FPassing clouds.7 mph93%30.30 "Hg0 mi
9:00 PM43 °FClear.8 mph93%30.30 "Hg4 mi
8:00 PM43 °FClear.10 mph100%30.30 "HgN/A
7:30 PM43 °FClear.10 mph93%30.30 "HgN/A
7:00 PM45 °FClear.13 mph93%30.30 "HgN/A
6:30 PM45 °FClear.10 mph93%30.30 "HgN/A
6:00 PM46 °FClear.12 mph93%30.30 "HgN/A
5:30 PM48 °FClear.13 mph94%30.30 "HgN/A
5:00 PM50 °FClear.14 mph82%30.30 "HgN/A
4:30 PM52 °FClear.14 mph82%30.30 "HgN/A
4:00 PM54 °FClear.20 mph77%30.30 "HgN/A
3:30 PM54 °FSunny.20 mph77%30.27 "HgN/A
3:00 PM55 °FSunny.21 mph67%30.27 "HgN/A
2:30 PM55 °FSunny.22 mph72%30.27 "HgN/A
2:00 PM55 °FSunny.20 mph72%30.27 "HgN/A
1:00 PM55 °FSunny.20 mph72%30.30 "HgN/A
Weather by CustomWeather, © 2015

See weather overviewHow to use our weather pages